This is the latest recevied weather packets stored in our database for station/object KD0SBN-3. If no packets are shown the sender has not sent any weather packets the latest 10 day(s).
| Time | Temp. | Humidity | Pressure | Rain* | Wind** | Luminosity | Snow |
|---|---|---|---|---|---|---|---|
| 1777935947 | 13.89° C | 26% | 1018.9 hPa | 0 mm | - | 133 W/m² | - |
| 1777935647 | 14.44° C | 25% | 1018.9 hPa | 0 mm | - | 121 W/m² | - |
| 1777935343 | 13.89° C | 26% | 1019.1 hPa | 0 mm | - | 143 W/m² | - |
| 1777935041 | 13.89° C | 26% | 1019 hPa | 0 mm | - | 146 W/m² | - |
| 1777934737 | 14.44° C | 26% | 1019 hPa | 0 mm | - | 157 W/m² | - |
| 1777934434 | 15° C | 27% | 1019.2 hPa | 0 mm | - | 156 W/m² | - |
| 1777934131 | 15.56° C | 26% | 1019.2 hPa | 0 mm | - | 164 W/m² | - |
| 1777933827 | 15° C | 28% | 1019.2 hPa | 0 mm | - | 170 W/m² | - |
| 1777933524 | 14.44° C | 27% | 1019.2 hPa | 0 mm | - | 170 W/m² | - |
| 1777933221 | 15° C | 26% | 1019.6 hPa | 0 mm | - | 181 W/m² | - |
| 1777932918 | 15.56° C | 27% | 1019.5 hPa | 0 mm | - | 185 W/m² | - |
| 1777932615 | 15° C | 27% | 1019.9 hPa | 0 mm | - | 318 W/m² | - |
| 1777932312 | 15° C | 28% | 1019.8 hPa | 0 mm | - | 258 W/m² | - |
| 1777932009 | 15° C | 28% | 1019.8 hPa | 0 mm | - | 360 W/m² | - |
| 1777931705 | 15° C | 28% | 1019.8 hPa | 0 mm | - | 310 W/m² | - |
| 1777931403 | 15.56° C | 27% | 1019.8 hPa | 0 mm | - | 369 W/m² | - |
| 1777931098 | 16.11° C | 25% | 1019.5 hPa | 0 mm | - | 507 W/m² | - |
| 1777930795 | 15.56° C | 27% | 1019.8 hPa | 0 mm | - | 339 W/m² | - |
| 1777930491 | 15° C | 27% | 1019.8 hPa | 0 mm | - | 389 W/m² | - |
| 1777930188 | 15.56° C | 26% | 1020 hPa | 0 mm | - | 433 W/m² | - |
| 1777929884 | 15.56° C | 26% | 1020.2 hPa | 0 mm | - | 365 W/m² | - |
| 1777929582 | 15.56° C | 27% | 1019.9 hPa | 0 mm | - | 449 W/m² | - |
| 1777929278 | 16.11° C | 27% | 1019.8 hPa | 0 mm | - | 534 W/m² | - |
| 1777928976 | 16.67° C | 26% | 1020 hPa | 0 mm | - | 270 W/m² | - |
| 1777928673 | 17.22° C | 26% | 1020.6 hPa | 0 mm | - | 593 W/m² | - |
* Rain latest hour (hover to see other rain measurements)
** Current wind speed in m/s (hover to see current wind gust speed)